Weather in Zalivino

Russia / Kaliningrad Oblast     54°53′35″N   21°04′04″E
temp.,
°C
wind,
m/s
gust,
m/s
humid.,
%
clouds,
%
prec.,
mm/h
press.,
hPa
HPBL,
m
8 march, mon
mon823:00−1nw7127096 0.1 1012304
02:00−1nw8137182 0.1 1012279
05:00−2nnw81394100 0.4 1013504
08:00−2n6117994 0.6 1014312
11:00−1nnw598399 0.1 1017776
14:00−1nnw81076100 0.2 10181053
17:00−1nnw7117890 0.1 1019610
20:00−2n5107752 0.1 1020227
9 march, tue
tue923:00−3nne46780 0.0 1021109
02:00−4nne238011 0.0 102242
05:00−4n118499 0.0 102127
08:00−3ssw2280100 0.0 102235
11:00−2ssw2476100 0.0 1022285
14:000sw236988 0.0 1022283
17:00−1sw117798 0.0 102135
20:00−2sw128079 0.0 102121
10 march, wed
wed1023:00−2ssw347899 0.0 102150
02:00−2ssw3483100 0.0 102072
05:00−2sw447986 0.0 101978
08:00−2sw468182 0.0 102098
11:000sw467331 0.0 1020120
14:00+1wsw347034 0.0 102053
17:000w337314 0.0 101930
20:00−1sw12757 0.0 101921
11 march, thu
thu1123:00−1sse347333 0.0 101945
02:00−2s238635 0.0 102029
05:00−3sse459323 0.0 101788
08:00−2sse597462 0.0 1015170
11:00+1sse81360100 0.0 1013377
14:00+2s101659100 0.0 1009357
17:00+1s111889100 0.3 1005653
20:00+1sse121994100 1.4 1001470
12 march, fri
fri1223:00+3ssw91695100 7.3 998245
02:00+3wsw7128883 8.5 998156
05:00+2sw7128967 0.0 999190
08:00+2sw8149083 0.0 1000258
11:00+2wsw81696100 1.8 1000363
14:00+3w81785100 2.5 1002375
17:00+3wsw7137891 0.1 1003222
20:00+2sw7107982 0.1 1004138